Погода в Первомайке

Россия / Костромская область     57°39′09″N   43°39′43″E
темп.,
°C
ветер,
м/с
пор.,
м/с
влажн.,
%
обл.,
%
осадки,
мм/ч
давл.,
гПа
погр.,
м
8 мая, сб
сб800:00+4ю34822 0.0 101561
03:00+4ю358394 0.0 101673
06:00+6ю3776100 0.0 1016194
09:00+12ююв574913 0.0 1016893
12:00+15ююв573645 0.0 10152214
15:00+15ююв6738100 0.0 10132271
18:00+14юв495297 0.0 1011627
21:00+9вюв41271100 0.0 1009307
9 мая, вс
вс900:00+11юв61484100 0.1 1007653
03:00+11юв61388100 0.1 1005609
06:00+11ююв51290100 0.8 1005657
09:00+11ююв51294100 2.1 1006607
12:00+11ююз3796100 2.6 1008536
15:00+10з1496100 4.7 1009236
18:00+9сз2498100 5.0 1010176
21:00+7ссз5997100 11.8 1013376
10 мая, пн
пн1000:00+6сз5994100 2.6 1016561
03:00+5ссз4993100 2.9 1020624
06:00+5ссз51090100 0.0 1023615
09:00+8с586716 0.0 10251051
12:00+12с56475 0.0 10261575
15:00+14с45415 0.0 10271777
18:00+13с35510 0.0 1028342
21:00+7ссв22660 0.0 103013
11 мая, вт
вт1100:00+5св227114 0.0 103111
03:00+4всв1178100 0.0 103210
06:00+7в127457 0.0 1033105
09:00+13в23545 0.0 1033698
12:00+16в234081 0.0 10321110
15:00+18в233615 0.0 10311174
18:00+17в245432 0.0 1031154
21:00+11юв22686 0.0 103222
12 мая, ср
ср1200:00+9вюв22715 0.0 103216
03:00+7в22745 0.0 103220
06:00+10в26711 0.0 1032146
09:00+16в46483 0.0 1032661
12:00+20вюв45390 0.0 10311175
15:00+22вюв34390 0.0 10291293
18:00+20вюв25562 0.0 1029161
21:00+13в357520 0.0 102962